contact:dominique.lefevre@mio.osupytheas.fr, maurice.libes@osupytheas.fr, didier.mallarino@osupytheas.fr
Project:EMSO http://www.emso-fr.org/EMSO-France
Depth: 2436.0 m
Title:EMSO Ligure Ouest : Data MII capteur MICROCAT
DateTime_Computer,Latitude,Longitude,Temperature,Conductivity,Pressure,DateTime_Instrument
DateTime_Computer,Latitude,Longitude,degC,S m-1,dbar,DateTime_Instrument
2023-09-18T00:02:30Z,42.805,6.029,13.3053,4.60118,2470.73,2023-9-18T02:04:52Z
2023-09-18T00:05:33Z,42.805,6.029,13.3058,4.60117,2470.74,2023-9-18T02:07:56Z
2023-09-18T00:08:36Z,42.805,6.029,13.3051,4.60113,2470.777,2023-9-18T02:10:59Z
2023-09-18T00:11:39Z,42.805,6.029,13.3043,4.60120,2470.777,2023-9-18T02:14:02Z
2023-09-18T00:14:43Z,42.805,6.029,13.3048,4.60127,2470.74,2023-9-18T02:17:05Z
2023-09-18T00:17:46Z,42.805,6.029,13.3048,4.60132,2470.763,2023-9-18T02:20:08Z
2023-09-18T00:20:49Z,42.805,6.029,13.3069,4.60121,2470.73,2023-9-18T02:23:11Z
2023-09-18T00:23:52Z,42.805,6.029,13.3061,4.60144,2470.754,2023-9-18T02:26:14Z
2023-09-18T00:26:55Z,42.805,6.029,13.3074,4.60132,2470.717,2023-9-18T02:29:17Z
2023-09-18T00:29:58Z,42.805,6.029,13.3046,4.60129,2470.717,2023-9-18T02:32:20Z
2023-09-18T00:33:01Z,42.805,6.029,13.3059,4.60127,2470.717,2023-9-18T02:35:23Z
2023-09-18T00:36:04Z,42.805,6.029,13.3054,4.60133,2470.74,2023-9-18T02:38:26Z
2023-09-18T00:39:07Z,42.805,6.029,13.3056,4.60141,2470.754,2023-9-18T02:41:29Z
2023-09-18T00:42:10Z,42.805,6.029,13.3075,4.60119,2470.73,2023-9-18T02:44:33Z
2023-09-18T00:45:13Z,42.805,6.029,13.3061,4.60132,2470.74,2023-9-18T02:47:36Z
2023-09-18T00:48:16Z,42.805,6.029,13.3069,4.60120,2470.693,2023-9-18T02:50:39Z
2023-09-18T00:51:20Z,42.805,6.029,13.3060,4.60125,2470.693,2023-9-18T02:53:42Z
2023-09-18T00:54:23Z,42.805,6.029,13.3052,4.60116,2470.717,2023-9-18T02:56:45Z
2023-09-18T00:57:26Z,42.805,6.029,13.3054,4.60117,2470.717,2023-9-18T02:59:48Z
2023-09-18T01:00:29Z,42.805,6.029,13.3053,4.60111,2470.73,2023-9-18T03:02:51Z
2023-09-18T01:03:32Z,42.805,6.029,13.3056,4.60133,2470.717,2023-9-18T03:05:54Z
2023-09-18T01:06:35Z,42.805,6.029,13.3067,4.60121,2470.717,2023-9-18T03:08:57Z
2023-09-18T01:09:38Z,42.805,6.029,13.3061,4.60127,2470.693,2023-9-18T03:12:00Z
2023-09-18T01:12:41Z,42.805,6.029,13.3060,4.60117,2470.707,2023-9-18T03:15:03Z
2023-09-18T01:15:44Z,42.805,6.029,13.3060,4.60125,2470.717,2023-9-18T03:18:06Z
2023-09-18T01:18:47Z,42.805,6.029,13.3071,4.60114,2470.693,2023-9-18T03:21:10Z
2023-09-18T01:21:50Z,42.805,6.029,13.3058,4.60124,2470.717,2023-9-18T03:24:13Z
2023-09-18T01:24:53Z,42.805,6.029,13.3067,4.60119,2470.693,2023-9-18T03:27:16Z
2023-09-18T01:27:57Z,42.805,6.029,13.3060,4.60129,2470.707,2023-9-18T03:30:19Z
2023-09-18T01:31:00Z,42.805,6.029,13.3067,4.60125,2470.693,2023-9-18T03:33:22Z
2023-09-18T01:34:03Z,42.805,6.029,13.3076,4.60117,2470.693,2023-9-18T03:36:25Z
2023-09-18T01:37:06Z,42.805,6.029,13.3063,4.60135,2470.693,2023-9-18T03:39:28Z
2023-09-18T01:40:09Z,42.805,6.029,13.3071,4.60119,2470.693,2023-9-18T03:42:31Z
2023-09-18T01:43:12Z,42.805,6.029,13.3062,4.60117,2470.73,2023-9-18T03:45:34Z
2023-09-18T01:46:15Z,42.805,6.029,13.3067,4.60117,2470.67,2023-9-18T03:48:37Z
2023-09-18T01:49:18Z,42.805,6.029,13.3070,4.60108,2470.693,2023-9-18T03:51:40Z
2023-09-18T01:52:21Z,42.805,6.029,13.3052,4.60123,2470.67,2023-9-18T03:54:43Z
2023-09-18T01:55:24Z,42.805,6.029,13.3066,4.60125,2470.67,2023-9-18T03:57:47Z
2023-09-18T01:58:27Z,42.805,6.029,13.3063,4.60127,2470.684,2023-9-18T04:00:50Z
2023-09-18T02:01:30Z,42.805,6.029,13.3056,4.60135,2470.67,2023-9-18T04:03:53Z
2023-09-18T02:04:34Z,42.805,6.029,13.3064,4.60130,2470.67,2023-9-18T04:06:56Z
2023-09-18T02:07:37Z,42.805,6.029,13.3083,4.60123,2470.707,2023-9-18T04:09:59Z
2023-09-18T02:10:40Z,42.805,6.029,13.3067,4.60135,2470.661,2023-9-18T04:13:02Z
2023-09-18T02:13:43Z,42.805,6.029,13.3073,4.60134,2470.707,2023-9-18T04:16:05Z
2023-09-18T02:16:46Z,42.805,6.029,13.3070,4.60128,2470.684,2023-9-18T04:19:08Z
2023-09-18T02:19:49Z,42.805,6.029,13.3091,4.60127,2470.661,2023-9-18T04:22:11Z
2023-09-18T02:22:52Z,42.805,6.029,13.3062,4.60125,2470.67,2023-9-18T04:25:14Z
2023-09-18T02:25:55Z,42.805,6.029,13.3058,4.60117,2470.67,2023-9-18T04:28:17Z
2023-09-18T02:28:58Z,42.805,6.029,13.3075,4.60120,2470.656,2023-9-18T04:31:20Z
2023-09-18T02:32:01Z,42.805,6.029,13.3069,4.60125,2470.707,2023-9-18T04:34:24Z
2023-09-18T02:35:04Z,42.805,6.029,13.3069,4.60122,2470.684,2023-9-18T04:37:27Z
2023-09-18T02:38:08Z,42.805,6.029,13.3067,4.60114,2470.67,2023-9-18T04:40:30Z
2023-09-18T02:41:11Z,42.805,6.029,13.3068,4.60110,2470.67,2023-9-18T04:43:33Z
2023-09-18T02:44:14Z,42.805,6.029,13.3056,4.60117,2470.717,2023-9-18T04:46:36Z
2023-09-18T02:47:17Z,42.805,6.029,13.3054,4.60129,2470.707,2023-9-18T04:49:39Z
2023-09-18T02:50:20Z,42.805,6.029,13.3078,4.60135,2470.67,2023-9-18T04:52:42Z
2023-09-18T02:53:23Z,42.805,6.029,13.3073,4.60126,2470.67,2023-9-18T04:55:45Z
2023-09-18T02:56:26Z,42.805,6.029,13.3078,4.60127,2470.684,2023-9-18T04:58:48Z
2023-09-18T02:59:29Z,42.805,6.029,13.3072,4.60137,2470.661,2023-9-18T05:01:51Z
2023-09-18T03:02:32Z,42.805,6.029,13.3099,4.60129,2470.646,2023-9-18T05:04:54Z
2023-09-18T03:05:35Z,42.805,6.029,13.3077,4.60135,2470.67,2023-9-18T05:07:57Z
2023-09-18T03:08:38Z,42.805,6.029,13.3063,4.60132,2470.646,2023-9-18T05:11:01Z
2023-09-18T03:11:41Z,42.805,6.029,13.3067,4.60125,2470.661,2023-9-18T05:14:04Z
2023-09-18T03:14:45Z,42.805,6.029,13.3082,4.60125,2470.646,2023-9-18T05:17:07Z
2023-09-18T03:17:48Z,42.805,6.029,13.3076,4.60111,2470.67,2023-9-18T05:20:10Z
2023-09-18T03:20:51Z,42.805,6.029,13.3072,4.60132,2470.67,2023-9-18T05:23:13Z
2023-09-18T03:23:54Z,42.805,6.029,13.3059,4.60143,2470.637,2023-9-18T05:26:16Z
2023-09-18T03:26:57Z,42.805,6.029,13.3063,4.60145,2470.646,2023-9-18T05:29:19Z
2023-09-18T03:30:00Z,42.805,6.029,13.3069,4.60134,2470.693,2023-9-18T05:32:22Z
2023-09-18T03:33:03Z,42.805,6.029,13.3095,4.60117,2470.661,2023-9-18T05:35:25Z
2023-09-18T03:36:06Z,42.805,6.029,13.3095,4.60136,2470.67,2023-9-18T05:38:28Z
2023-09-18T03:39:09Z,42.805,6.029,13.3091,4.60125,2470.684,2023-9-18T05:41:31Z
2023-09-18T03:42:12Z,42.805,6.029,13.3084,4.60127,2470.661,2023-9-18T05:44:34Z
2023-09-18T03:45:15Z,42.805,6.029,13.3089,4.60123,2470.693,2023-9-18T05:47:38Z
2023-09-18T03:48:18Z,42.805,6.029,13.3096,4.60140,2470.684,2023-9-18T05:50:41Z
2023-09-18T03:51:22Z,42.805,6.029,13.3102,4.60134,2470.67,2023-9-18T05:53:44Z
2023-09-18T03:54:25Z,42.805,6.029,13.3073,4.60126,2470.684,2023-9-18T05:56:47Z
2023-09-18T03:57:28Z,42.805,6.029,13.3088,4.60122,2470.684,2023-9-18T05:59:50Z
2023-09-18T04:00:31Z,42.805,6.029,13.3097,4.60151,2470.707,2023-9-18T06:02:53Z
2023-09-18T04:03:34Z,42.805,6.029,13.3107,4.60147,2470.661,2023-9-18T06:05:56Z
2023-09-18T04:06:37Z,42.805,6.029,13.3106,4.60137,2470.693,2023-9-18T06:08:59Z
2023-09-18T04:09:40Z,42.805,6.029,13.3124,4.60129,2470.684,2023-9-18T06:12:02Z
2023-09-18T04:12:43Z,42.805,6.029,13.3106,4.60148,2470.67,2023-9-18T06:15:05Z
2023-09-18T04:15:46Z,42.805,6.029,13.3107,4.60135,2470.684,2023-9-18T06:18:08Z
2023-09-18T04:18:49Z,42.805,6.029,13.3113,4.60142,2470.67,2023-9-18T06:21:11Z
2023-09-18T04:21:52Z,42.805,6.029,13.3113,4.60140,2470.67,2023-9-18T06:24:15Z
2023-09-18T04:24:55Z,42.805,6.029,13.3116,4.60144,2470.684,2023-9-18T06:27:18Z
2023-09-18T04:27:59Z,42.805,6.029,13.3123,4.60160,2470.67,2023-9-18T06:30:21Z
2023-09-18T04:31:02Z,42.805,6.029,13.3089,4.60156,2470.693,2023-9-18T06:33:24Z
2023-09-18T04:34:05Z,42.805,6.029,13.3100,4.60165,2470.693,2023-9-18T06:36:27Z
2023-09-18T04:37:08Z,42.805,6.029,13.3069,4.60169,2470.661,2023-9-18T06:39:30Z
2023-09-18T04:40:11Z,42.805,6.029,13.3085,4.60157,2470.693,2023-9-18T06:42:33Z
2023-09-18T04:43:14Z,42.805,6.029,13.3073,4.60162,2470.67,2023-9-18T06:45:36Z
2023-09-18T04:46:17Z,42.805,6.029,13.3085,4.60170,2470.684,2023-9-18T06:48:39Z
2023-09-18T04:49:20Z,42.805,6.029,13.3095,4.60179,2470.67,2023-9-18T06:51:42Z
2023-09-18T04:52:23Z,42.805,6.029,13.3095,4.60173,2470.661,2023-9-18T06:54:45Z
2023-09-18T04:55:26Z,42.805,6.029,13.3101,4.60155,2470.684,2023-9-18T06:57:48Z
2023-09-18T04:58:29Z,42.805,6.029,13.3124,4.60139,2470.684,2023-9-18T07:00:52Z
2023-09-18T05:01:32Z,42.805,6.029,13.3089,4.60155,2470.684,2023-9-18T07:03:55Z
2023-09-18T05:04:36Z,42.805,6.029,13.3082,4.60146,2470.707,2023-9-18T07:06:58Z
2023-09-18T05:07:39Z,42.805,6.029,13.3078,4.60125,2470.684,2023-9-18T07:10:01Z
2023-09-18T05:10:42Z,42.805,6.029,13.3082,4.60133,2470.707,2023-9-18T07:13:04Z
2023-09-18T05:13:45Z,42.805,6.029,13.3099,4.60124,2470.693,2023-9-18T07:16:07Z
2023-09-18T05:16:48Z,42.805,6.029,13.3072,4.60125,2470.754,2023-9-18T07:19:10Z
2023-09-18T05:19:51Z,42.805,6.029,13.3079,4.60122,2470.67,2023-9-18T07:22:13Z
2023-09-18T05:22:54Z,42.805,6.029,13.3097,4.60157,2470.693,2023-9-18T07:25:16Z
2023-09-18T05:25:57Z,42.805,6.029,13.3028,4.60137,2470.717,2023-9-18T07:28:19Z
2023-09-18T05:29:00Z,42.805,6.029,13.3040,4.60156,2470.67,2023-9-18T07:31:22Z
2023-09-18T05:32:03Z,42.805,6.029,13.3027,4.60180,2470.693,2023-9-18T07:34:25Z
2023-09-18T05:35:06Z,42.805,6.029,13.3039,4.60156,2470.693,2023-9-18T07:37:29Z
2023-09-18T05:38:09Z,42.805,6.029,13.3036,4.60136,2470.754,2023-9-18T07:40:32Z
2023-09-18T05:41:13Z,42.805,6.029,13.3042,4.60146,2470.684,2023-9-18T07:43:35Z
2023-09-18T05:44:16Z,42.805,6.029,13.3084,4.60188,2470.707,2023-9-18T07:46:38Z
2023-09-18T05:47:19Z,42.805,6.029,13.3084,4.60165,2470.74,2023-9-18T07:49:41Z
2023-09-18T05:50:22Z,42.805,6.029,13.3091,4.60147,2470.74,2023-9-18T07:52:44Z
2023-09-18T05:53:25Z,42.805,6.029,13.3088,4.60179,2470.777,2023-9-18T07:55:47Z
2023-09-18T05:56:28Z,42.805,6.029,13.3069,4.60151,2470.717,2023-9-18T07:58:50Z
2023-09-18T05:59:31Z,42.805,6.029,13.3096,4.60136,2470.763,2023-9-18T08:01:53Z
2023-09-18T06:02:34Z,42.805,6.029,13.3070,4.60126,2470.763,2023-9-18T08:04:56Z
2023-09-18T06:05:37Z,42.805,6.029,13.3085,4.60117,2470.73,2023-9-18T08:07:59Z
2023-09-18T06:08:40Z,42.805,6.029,13.3084,4.60122,2470.754,2023-9-18T08:11:02Z
2023-09-18T06:11:43Z,42.805,6.029,13.3056,4.60139,2470.717,2023-9-18T08:14:06Z
2023-09-18T06:14:46Z,42.805,6.029,13.3039,4.60134,2470.754,2023-9-18T08:17:09Z
2023-09-18T06:17:49Z,42.805,6.029,13.3040,4.60154,2470.777,2023-9-18T08:20:12Z
2023-09-18T06:20:53Z,42.805,6.029,13.3111,4.60119,2470.777,2023-9-18T08:23:15Z
2023-09-18T06:23:56Z,42.805,6.029,13.3077,4.60131,2470.787,2023-9-18T08:26:18Z
2023-09-18T06:26:59Z,42.805,6.029,13.3071,4.60141,2470.777,2023-9-18T08:29:21Z
2023-09-18T06:30:02Z,42.805,6.029,13.3081,4.60135,2470.763,2023-9-18T08:32:24Z
2023-09-18T06:33:04Z,42.805,6.029,13.3080,4.60127,2470.763,2023-9-18T08:35:26Z
2023-09-18T06:36:07Z,42.805,6.029,13.3089,4.60130,2470.8,2023-9-18T08:38:29Z
2023-09-18T06:39:10Z,42.805,6.029,13.3075,4.60147,2470.726,2023-9-18T08:41:32Z
2023-09-18T06:42:13Z,42.805,6.029,13.3056,4.60139,2470.777,2023-9-18T08:44:35Z
2023-09-18T06:45:16Z,42.805,6.029,13.3092,4.60141,2470.787,2023-9-18T08:47:38Z
2023-09-18T06:48:19Z,42.805,6.029,13.3041,4.60142,2470.777,2023-9-18T08:50:41Z
2023-09-18T06:51:22Z,42.805,6.029,13.3036,4.60142,2470.81,2023-9-18T08:53:44Z
2023-09-18T06:54:25Z,42.805,6.029,13.3029,4.60144,2470.787,2023-9-18T08:56:47Z
2023-09-18T06:57:28Z,42.805,6.029,13.3055,4.60163,2470.81,2023-9-18T08:59:51Z
2023-09-18T07:00:31Z,42.805,6.029,13.3036,4.60142,2470.787,2023-9-18T09:02:54Z
2023-09-18T07:03:35Z,42.805,6.029,13.3032,4.60161,2470.8,2023-9-18T09:05:57Z
2023-09-18T07:06:38Z,42.805,6.029,13.3038,4.60146,2470.824,2023-9-18T09:09:00Z
2023-09-18T07:09:41Z,42.805,6.029,13.3031,4.60170,2470.787,2023-9-18T09:12:03Z
2023-09-18T07:12:44Z,42.805,6.029,13.3034,4.60155,2470.81,2023-9-18T09:15:06Z
2023-09-18T07:15:47Z,42.805,6.029,13.3029,4.60157,2470.833,2023-9-18T09:18:09Z
2023-09-18T07:18:50Z,42.805,6.029,13.3031,4.60151,2470.81,2023-9-18T09:21:12Z
2023-09-18T07:21:53Z,42.805,6.029,13.3031,4.60173,2470.787,2023-9-18T09:24:15Z
2023-09-18T07:24:56Z,42.805,6.029,13.3029,4.60193,2470.81,2023-9-18T09:27:18Z
2023-09-18T07:27:59Z,42.805,6.029,13.3031,4.60162,2470.824,2023-9-18T09:30:21Z
2023-09-18T07:31:02Z,42.805,6.029,13.3029,4.60150,2470.847,2023-9-18T09:33:25Z
2023-09-18T07:34:05Z,42.805,6.029,13.3029,4.60115,2470.81,2023-9-18T09:36:28Z
2023-09-18T07:37:08Z,42.805,6.029,13.3026,4.60122,2470.833,2023-9-18T09:39:31Z
2023-09-18T07:40:12Z,42.805,6.029,13.3029,4.60115,2470.833,2023-9-18T09:42:34Z
2023-09-18T07:43:15Z,42.805,6.029,13.3029,4.60112,2470.824,2023-9-18T09:45:37Z
2023-09-18T07:46:18Z,42.805,6.029,13.3026,4.60128,2470.81,2023-9-18T09:48:40Z
2023-09-18T07:49:21Z,42.805,6.029,13.3033,4.60171,2470.833,2023-9-18T09:51:43Z
2023-09-18T07:52:24Z,42.805,6.029,13.3030,4.60127,2470.81,2023-9-18T09:54:46Z
2023-09-18T07:55:27Z,42.805,6.029,13.3028,4.60117,2470.81,2023-9-18T09:57:49Z
2023-09-18T07:58:30Z,42.805,6.029,13.3029,4.60114,2470.833,2023-9-18T10:00:52Z
2023-09-18T08:01:33Z,42.805,6.029,13.3025,4.60115,2470.833,2023-9-18T10:03:55Z
2023-09-18T08:04:36Z,42.805,6.029,13.3026,4.60118,2470.81,2023-9-18T10:06:58Z
2023-09-18T08:07:39Z,42.805,6.029,13.3025,4.60112,2470.833,2023-9-18T10:10:01Z
2023-09-18T08:10:42Z,42.805,6.029,13.3027,4.60114,2470.833,2023-9-18T10:13:05Z
2023-09-18T08:13:45Z,42.805,6.029,13.3027,4.60097,2470.824,2023-9-18T10:16:08Z
2023-09-18T08:16:49Z,42.805,6.029,13.3031,4.60100,2470.847,2023-9-18T10:19:11Z
2023-09-18T08:19:52Z,42.805,6.029,13.3036,4.60101,2470.833,2023-9-18T10:22:14Z
2023-09-18T08:22:55Z,42.805,6.029,13.3039,4.60103,2470.824,2023-9-18T10:25:17Z
2023-09-18T08:25:58Z,42.805,6.029,13.3031,4.60104,2470.847,2023-9-18T10:28:20Z
2023-09-18T08:29:01Z,42.805,6.029,13.3034,4.60103,2470.833,2023-9-18T10:31:23Z
2023-09-18T08:32:03Z,42.805,6.029,13.3030,4.60106,2470.857,2023-9-18T10:34:25Z
2023-09-18T08:35:06Z,42.805,6.029,13.3031,4.60102,2470.833,2023-9-18T10:37:28Z
2023-09-18T08:38:09Z,42.805,6.029,13.3058,4.60176,2470.857,2023-9-18T10:40:31Z
2023-09-18T08:41:12Z,42.805,6.029,13.3029,4.60107,2470.847,2023-9-18T10:43:34Z
2023-09-18T08:44:15Z,42.805,6.029,13.3027,4.60098,2470.833,2023-9-18T10:46:37Z
2023-09-18T08:47:18Z,42.805,6.029,13.3026,4.60110,2470.847,2023-9-18T10:49:41Z
2023-09-18T08:50:21Z,42.805,6.029,13.3030,4.60101,2470.81,2023-9-18T10:52:44Z
2023-09-18T08:53:24Z,42.805,6.029,13.3027,4.60099,2470.833,2023-9-18T10:55:47Z
2023-09-18T08:56:28Z,42.805,6.029,13.3027,4.60107,2470.833,2023-9-18T10:58:50Z
2023-09-18T08:59:31Z,42.805,6.029,13.3026,4.60106,2470.857,2023-9-18T11:01:53Z
2023-09-18T09:02:34Z,42.805,6.029,13.3029,4.60107,2470.857,2023-9-18T11:04:56Z
2023-09-18T09:05:37Z,42.805,6.029,13.3041,4.60116,2470.833,2023-9-18T11:07:59Z
2023-09-18T09:08:40Z,42.805,6.029,13.3069,4.60135,2470.833,2023-9-18T11:11:02Z
2023-09-18T09:11:43Z,42.805,6.029,13.3061,4.60154,2470.833,2023-9-18T11:14:05Z
2023-09-18T09:14:46Z,42.805,6.029,13.3029,4.60127,2470.824,2023-9-18T11:17:08Z
2023-09-18T09:17:49Z,42.805,6.029,13.3070,4.60173,2470.833,2023-9-18T11:20:11Z
2023-09-18T09:20:52Z,42.805,6.029,13.3051,4.60154,2470.847,2023-9-18T11:23:14Z
2023-09-18T09:23:55Z,42.805,6.029,13.3060,4.60154,2470.787,2023-9-18T11:26:18Z
2023-09-18T09:26:58Z,42.805,6.029,13.3064,4.60169,2470.824,2023-9-18T11:29:21Z
2023-09-18T09:30:02Z,42.805,6.029,13.3046,4.60164,2470.833,2023-9-18T11:32:24Z
2023-09-18T09:33:05Z,42.805,6.029,13.3057,4.60158,2470.81,2023-9-18T11:35:27Z
2023-09-18T09:36:08Z,42.805,6.029,13.3066,4.60197,2470.81,2023-9-18T11:38:30Z
2023-09-18T09:39:11Z,42.805,6.029,13.3088,4.60201,2470.857,2023-9-18T11:41:33Z
2023-09-18T09:42:14Z,42.805,6.029,13.3055,4.60185,2470.871,2023-9-18T11:44:36Z
2023-09-18T09:45:17Z,42.805,6.029,13.3046,4.60201,2470.833,2023-9-18T11:47:39Z
2023-09-18T09:48:20Z,42.805,6.029,13.3041,4.60185,2470.81,2023-9-18T11:50:42Z
2023-09-18T09:51:23Z,42.805,6.029,13.3048,4.60157,2470.847,2023-9-18T11:53:45Z
2023-09-18T09:54:26Z,42.805,6.029,13.3056,4.60145,2470.847,2023-9-18T11:56:48Z
2023-09-18T09:57:29Z,42.805,6.029,13.3046,4.60181,2470.833,2023-9-18T11:59:52Z
2023-09-18T10:00:32Z,42.805,6.029,13.3052,4.60190,2470.824,2023-9-18T12:02:55Z
2023-09-18T10:03:35Z,42.805,6.029,13.3059,4.60198,2470.81,2023-9-18T12:05:58Z
2023-09-18T10:06:39Z,42.805,6.029,13.3066,4.60182,2470.754,2023-9-18T12:09:01Z
2023-09-18T10:09:42Z,42.805,6.029,13.3061,4.60180,2470.81,2023-9-18T12:12:04Z
2023-09-18T10:12:45Z,42.805,6.029,13.3056,4.60178,2470.81,2023-9-18T12:15:07Z
2023-09-18T10:15:48Z,42.805,6.029,13.3052,4.60173,2470.824,2023-9-18T12:18:10Z
2023-09-18T10:18:51Z,42.805,6.029,13.3056,4.60166,2470.81,2023-9-18T12:21:13Z
2023-09-18T10:21:54Z,42.805,6.029,13.3085,4.60150,2470.8,2023-9-18T12:24:16Z
2023-09-18T10:24:57Z,42.805,6.029,13.3058,4.60185,2470.8,2023-9-18T12:27:19Z
2023-09-18T10:28:00Z,42.805,6.029,13.3049,4.60189,2470.787,2023-9-18T12:30:22Z
2023-09-18T10:31:02Z,42.805,6.029,13.3061,4.60170,2470.81,2023-9-18T12:33:24Z
2023-09-18T10:34:05Z,42.805,6.029,13.3063,4.60186,2470.787,2023-9-18T12:36:27Z
2023-09-18T10:37:08Z,42.805,6.029,13.3048,4.60181,2470.763,2023-9-18T12:39:30Z
2023-09-18T10:40:11Z,42.805,6.029,13.3045,4.60203,2470.787,2023-9-18T12:42:33Z
2023-09-18T10:43:14Z,42.805,6.029,13.3053,4.60164,2470.8,2023-9-18T12:45:36Z
2023-09-18T10:46:17Z,42.805,6.029,13.3058,4.60160,2470.81,2023-9-18T12:48:39Z
2023-09-18T10:49:20Z,42.805,6.029,13.3048,4.60156,2470.8,2023-9-18T12:51:43Z
2023-09-18T10:52:23Z,42.805,6.029,13.3038,4.60155,2470.787,2023-9-18T12:54:46Z
2023-09-18T10:55:26Z,42.805,6.029,13.3046,4.60167,2470.8,2023-9-18T12:57:49Z
2023-09-18T10:58:30Z,42.805,6.029,13.3053,4.60169,2470.833,2023-9-18T13:00:52Z
2023-09-18T11:01:33Z,42.805,6.029,13.3054,4.60151,2470.8,2023-9-18T13:03:55Z
2023-09-18T11:04:36Z,42.805,6.029,13.3056,4.60182,2470.81,2023-9-18T13:06:58Z
2023-09-18T11:07:39Z,42.805,6.029,13.3039,4.60147,2470.8,2023-9-18T13:10:01Z
2023-09-18T11:10:42Z,42.805,6.029,13.3053,4.60156,2470.8,2023-9-18T13:13:04Z
2023-09-18T11:13:45Z,42.805,6.029,13.3057,4.60158,2470.763,2023-9-18T13:16:07Z
2023-09-18T11:16:48Z,42.805,6.029,13.3042,4.60146,2470.763,2023-9-18T13:19:10Z
2023-09-18T11:19:51Z,42.805,6.029,13.3046,4.60129,2470.763,2023-9-18T13:22:13Z
2023-09-18T11:22:54Z,42.805,6.029,13.3051,4.60144,2470.763,2023-9-18T13:25:17Z
2023-09-18T11:25:57Z,42.805,6.029,13.3043,4.60146,2470.787,2023-9-18T13:28:20Z
2023-09-18T11:29:01Z,42.805,6.029,13.3046,4.60146,2470.787,2023-9-18T13:31:23Z
2023-09-18T11:32:04Z,42.805,6.029,13.3040,4.60152,2470.74,2023-9-18T13:34:26Z
2023-09-18T11:35:07Z,42.805,6.029,13.3044,4.60140,2470.777,2023-9-18T13:37:29Z
2023-09-18T11:38:10Z,42.805,6.029,13.3040,4.60147,2470.768,2023-9-18T13:40:32Z
2023-09-18T11:41:13Z,42.805,6.029,13.3043,4.60170,2470.74,2023-9-18T13:43:35Z
2023-09-18T11:44:16Z,42.805,6.029,13.3044,4.60143,2470.763,2023-9-18T13:46:38Z
2023-09-18T11:47:19Z,42.805,6.029,13.3042,4.60150,2470.763,2023-9-18T13:49:41Z
2023-09-18T11:50:22Z,42.805,6.029,13.3046,4.60144,2470.754,2023-9-18T13:52:44Z
2023-09-18T11:53:25Z,42.805,6.029,13.3046,4.60163,2470.763,2023-9-18T13:55:47Z
2023-09-18T11:56:28Z,42.805,6.029,13.3043,4.60141,2470.754,2023-9-18T13:58:51Z
2023-09-18T11:59:31Z,42.805,6.029,13.3057,4.60147,2470.74,2023-9-18T14:01:54Z
2023-09-18T12:02:35Z,42.805,6.029,13.3057,4.60169,2470.763,2023-9-18T14:04:57Z
2023-09-18T12:05:38Z,42.805,6.029,13.3038,4.60137,2470.74,2023-9-18T14:08:00Z
2023-09-18T12:08:41Z,42.805,6.029,13.3048,4.60143,2470.717,2023-9-18T14:11:03Z
2023-09-18T12:11:44Z,42.805,6.029,13.3039,4.60134,2470.754,2023-9-18T14:14:06Z
2023-09-18T12:14:47Z,42.805,6.029,13.3050,4.60128,2470.717,2023-9-18T14:17:09Z
2023-09-18T12:17:50Z,42.805,6.029,13.3031,4.60143,2470.754,2023-9-18T14:20:12Z
2023-09-18T12:20:53Z,42.805,6.029,13.3039,4.60140,2470.74,2023-9-18T14:23:15Z
2023-09-18T12:23:56Z,42.805,6.029,13.3039,4.60121,2470.74,2023-9-18T14:26:18Z
2023-09-18T12:26:59Z,42.805,6.029,13.3048,4.60132,2470.763,2023-9-18T14:29:21Z
2023-09-18T12:30:02Z,42.805,6.029,13.3039,4.60124,2470.754,2023-9-18T14:32:24Z
2023-09-18T12:33:05Z,42.805,6.029,13.3032,4.60149,2470.693,2023-9-18T14:35:28Z
2023-09-18T12:36:08Z,42.805,6.029,13.3032,4.60133,2470.693,2023-9-18T14:38:31Z
2023-09-18T12:39:12Z,42.805,6.029,13.3036,4.60137,2470.754,2023-9-18T14:41:34Z
2023-09-18T12:42:15Z,42.805,6.029,13.3041,4.60127,2470.717,2023-9-18T14:44:37Z
2023-09-18T12:45:18Z,42.805,6.029,13.3039,4.60144,2470.74,2023-9-18T14:47:40Z
2023-09-18T12:48:21Z,42.805,6.029,13.3039,4.60145,2470.73,2023-9-18T14:50:43Z
2023-09-18T12:51:24Z,42.805,6.029,13.3046,4.60146,2470.707,2023-9-18T14:53:46Z
2023-09-18T12:54:27Z,42.805,6.029,13.3043,4.60170,2470.74,2023-9-18T14:56:49Z
2023-09-18T12:57:30Z,42.805,6.029,13.3050,4.60155,2470.707,2023-9-18T14:59:52Z
2023-09-18T13:00:33Z,42.805,6.029,13.3047,4.60150,2470.693,2023-9-18T15:02:55Z
2023-09-18T13:03:36Z,42.805,6.029,13.3046,4.60146,2470.707,2023-9-18T15:05:58Z
2023-09-18T13:06:39Z,42.805,6.029,13.3038,4.60138,2470.707,2023-9-18T15:09:02Z
2023-09-18T13:09:42Z,42.805,6.029,13.3040,4.60166,2470.717,2023-9-18T15:12:05Z
2023-09-18T13:12:46Z,42.805,6.029,13.3039,4.60155,2470.684,2023-9-18T15:15:08Z
2023-09-18T13:15:49Z,42.805,6.029,13.3039,4.60137,2470.693,2023-9-18T15:18:11Z
2023-09-18T13:18:52Z,42.805,6.029,13.3050,4.60159,2470.754,2023-9-18T15:21:14Z
2023-09-18T13:21:55Z,42.805,6.029,13.3056,4.60155,2470.717,2023-9-18T15:24:17Z
2023-09-18T13:24:58Z,42.805,6.029,13.3040,4.60149,2470.717,2023-9-18T15:27:20Z
2023-09-18T13:28:01Z,42.805,6.029,13.3052,4.60146,2470.73,2023-9-18T15:30:23Z
2023-09-18T13:31:04Z,42.805,6.029,13.3049,4.60160,2470.67,2023-9-18T15:33:26Z
2023-09-18T13:34:07Z,42.805,6.029,13.3041,4.60140,2470.707,2023-9-18T15:36:29Z
2023-09-18T13:37:10Z,42.805,6.029,13.3037,4.60119,2470.67,2023-9-18T15:39:32Z
2023-09-18T13:40:13Z,42.805,6.029,13.3042,4.60122,2470.693,2023-9-18T15:42:36Z
2023-09-18T13:43:16Z,42.805,6.029,13.3037,4.60132,2470.684,2023-9-18T15:45:39Z
2023-09-18T13:46:19Z,42.805,6.029,13.3043,4.60139,2470.717,2023-9-18T15:48:42Z
2023-09-18T13:49:23Z,42.805,6.029,13.3039,4.60132,2470.74,2023-9-18T15:51:45Z
2023-09-18T13:52:26Z,42.805,6.029,13.3044,4.60131,2470.693,2023-9-18T15:54:48Z
2023-09-18T13:55:29Z,42.805,6.029,13.3054,4.60120,2470.707,2023-9-18T15:57:51Z
2023-09-18T13:58:32Z,42.805,6.029,13.3041,4.60128,2470.693,2023-9-18T16:00:54Z
2023-09-18T14:01:35Z,42.805,6.029,13.3054,4.60129,2470.661,2023-9-18T16:03:57Z
2023-09-18T14:04:38Z,42.805,6.029,13.3039,4.60127,2470.67,2023-9-18T16:07:00Z
2023-09-18T14:07:41Z,42.805,6.029,13.3043,4.60131,2470.707,2023-9-18T16:10:03Z
2023-09-18T14:10:44Z,42.805,6.029,13.3055,4.60142,2470.693,2023-9-18T16:13:06Z
2023-09-18T14:13:47Z,42.805,6.029,13.3046,4.60138,2470.661,2023-9-18T16:16:09Z
2023-09-18T14:16:50Z,42.805,6.029,13.3042,4.60152,2470.693,2023-9-18T16:19:13Z
2023-09-18T14:19:53Z,42.805,6.029,13.3041,4.60126,2470.684,2023-9-18T16:22:16Z
2023-09-18T14:22:57Z,42.805,6.029,13.3039,4.60121,2470.684,2023-9-18T16:25:19Z
2023-09-18T14:26:00Z,42.805,6.029,13.3045,4.60135,2470.67,2023-9-18T16:28:22Z
2023-09-18T14:29:03Z,42.805,6.029,13.3040,4.60167,2470.684,2023-9-18T16:31:25Z
2023-09-18T14:32:06Z,42.805,6.029,13.3067,4.60147,2470.684,2023-9-18T16:34:28Z
2023-09-18T14:35:09Z,42.805,6.029,13.3049,4.60164,2470.703,2023-9-18T16:37:31Z
2023-09-18T14:38:12Z,42.805,6.029,13.3051,4.60172,2470.646,2023-9-18T16:40:34Z
2023-09-18T14:41:15Z,42.805,6.029,13.3053,4.60163,2470.67,2023-9-18T16:43:37Z
2023-09-18T14:44:18Z,42.805,6.029,13.3043,4.60124,2470.684,2023-9-18T16:46:40Z
2023-09-18T14:47:21Z,42.805,6.029,13.3052,4.60141,2470.67,2023-9-18T16:49:43Z
2023-09-18T14:50:24Z,42.805,6.029,13.3051,4.60152,2470.646,2023-9-18T16:52:47Z
2023-09-18T14:53:27Z,42.805,6.029,13.3039,4.60134,2470.67,2023-9-18T16:55:50Z
2023-09-18T14:56:30Z,42.805,6.029,13.3059,4.60139,2470.693,2023-9-18T16:58:53Z
2023-09-18T14:59:34Z,42.805,6.029,13.3037,4.60147,2470.646,2023-9-18T17:01:56Z
2023-09-18T15:02:37Z,42.805,6.029,13.3039,4.60129,2470.67,2023-9-18T17:04:59Z
2023-09-18T15:05:40Z,42.805,6.029,13.3041,4.60145,2470.67,2023-9-18T17:08:02Z
2023-09-18T15:08:43Z,42.805,6.029,13.3039,4.60133,2470.646,2023-9-18T17:11:05Z
2023-09-18T15:11:46Z,42.805,6.029,13.3038,4.60132,2470.646,2023-9-18T17:14:08Z
2023-09-18T15:14:49Z,42.805,6.029,13.3041,4.60137,2470.707,2023-9-18T17:17:11Z